sat.trackr.live / text

‹ back to catalog

STARLINK-37463

NORAD 68854 · 2026-094R

PAYLOAD ACTIVE UNKNOWN

§ Identity

Operator
Country
US
Launch date
2026-04-26
Launch site
AFWTR
Launch vehicle
Mass (kg)
RCS (m²)

Purposes: comms

External: N2YO · Heavens-Above · Gunter

§ Orbital elements

Epoch: 2026-09-19T06:57:58.618656Z

Period
93.91 min
Inclination
97.2818°
Eccentricity
0.0001299
Mean motion
15.33450890 rev/d
Perigee alt
464.6 km
Apogee alt
466.4 km
Semi-major
6,843.7 km
B*
5.2021e-4
RAAN
275.4512°
Arg perigee
96.8159°
Mean anomaly
263.3232°
Rev number
2,247

§ Raw data

STARLINK-374631 68854U 26094R   26262.29026179  .00016760  00000+0  52021-3 0  99982 68854  97.2818 275.4512 0001299  96.8159 263.3232 15.33450890 22477

JSON: /api/v1/satellites/68854 · /tle

For live sub-satellite position, see the globe view (requires WebGL).

§ Visibility from observer

Set your observer location to see the next 7 days of passes ≥ 10°. The values pass through the URL so the page stays shareable.

No JS? Fill the form by hand. The geolocation button needs JavaScript.